| time (UTC) | temp C | wind direction | speed KPH | gust KPH | rain 1hr cm | rain 24hr cm | rain mn cm | humidity % | barometer mb |
| 20260509191133 | 25 | 344 | 6.4 | 27.4 | 0.00 | 0.00 | 0.00 | 39 | 1008.7 |
| 20260509190633 | 25 | 348 | 14.5 | 27.4 | 0.00 | 0.00 | 0.00 | 33 | 1008.6 |
| 20260509190133 | 26 | 18 | 6.4 | 19.3 | 0.00 | 0.00 | 0.00 | 26 | 1008.6 |
| 20260509185632 | 26 | 41 | 6.4 | 16.1 | 0.00 | 0.00 | 0.00 | 32 | 1008.6 |
| 20260509184631 | 25 | 338 | 4.8 | 16.1 | 0.00 | 0.00 | 0.00 | 33 | 1008.5 |
| 20260509184132 | 25 | 9 | 6.4 | 16.1 | 0.00 | 0.00 | 0.00 | 36 | 1008.5 |
| 20260509183631 | 24 | 277 | 4.8 | 17.7 | 0.00 | 0.00 | 0.00 | 38 | 1008.5 |
| 20260509183131 | 24 | 66 | 6.4 | 17.7 | 0.00 | 0.00 | 0.00 | 32 | 1008.7 |
| 20260509182631 | 24 | 38 | 8.0 | 25.7 | 0.00 | 0.00 | 0.00 | 27 | 1008.7 |
| 20260509182132 | 24 | 33 | 14.5 | 29.0 | 0.00 | 0.00 | 0.00 | 32 | 1008.7 |
| 20260509181631 | 25 | 22 | 11.3 | 29.0 | 0.00 | 0.00 | 0.00 | 34 | 1008.6 |
| 20260509181129 | 25 | 325 | 12.9 | 29.0 | 0.00 | 0.00 | 0.00 | 30 | 1008.4 |
| 20260509180629 | 25 | 15 | 12.9 | 24.1 | 0.00 | 0.00 | 0.00 | 29 | 1008.3 |
| 20260509180129 | 25 | 9 | 6.4 | 20.9 | 0.00 | 0.00 | 0.00 | 33 | 1008.2 |
| 20260509175129 | 24 | 291 | 8.0 | 24.1 | 0.00 | 0.00 | 0.00 | 37 | 1008.3 |
| 20260509174628 | 24 | 15 | 4.8 | 24.1 | 0.00 | 0.00 | 0.00 | 33 | 1008.3 |
| 20260509174127 | 24 | 336 | 6.4 | 22.5 | 0.00 | 0.00 | 0.00 | 32 | 1008.4 |
| 20260509173627 | 24 | 15 | 12.9 | 22.5 | 0.00 | 0.00 | 0.00 | 33 | 1008.5 |
| 20260509173126 | 24 | 336 | 6.4 | 17.7 | 0.00 | 0.00 | 0.00 | 36 | 1008.4 |
| 20260509172626 | 23 | 227 | 4.8 | 12.9 | 0.00 | 0.00 | 0.00 | 38 | 1008.5 |
| 20260509172127 | 23 | 325 | 3.2 | 16.1 | 0.00 | 0.00 | 0.00 | 38 | 1008.6 |
| 20260509171126 | 23 | 20 | 4.8 | 17.7 | 0.00 | 0.00 | 0.00 | 37 | 1008.8 |
| 20260509170625 | 23 | 341 | 8.0 | 17.7 | 0.00 | 0.00 | 0.00 | 36 | 1008.7 |
| 20260509170125 | 23 | 344 | 11.3 | 17.7 | 0.00 | 0.00 | 0.00 | 33 | 1008.7 |
| 20260509165625 | 23 | 339 | 6.4 | 17.7 | 0.00 | 0.00 | 0.00 | 34 | 1008.6 |
| 20260509165126 | 23 | 9 | 4.8 | 17.7 | 0.00 | 0.00 | 0.00 | 37 | 1008.6 |
| 20260509164623 | 23 | 51 | 6.4 | 17.7 | 0.00 | 0.00 | 0.00 | 37 | 1008.6 |
| 20260509163123 | 23 | 15 | 9.7 | 17.7 | 0.00 | 0.00 | 0.00 | 37 | 1008.5 |
| 20260509162622 | 23 | 9 | 3.2 | 17.7 | 0.00 | 0.00 | 0.00 | 36 | 1008.6 |
| 20260509161622 | 23 | 51 | 4.8 | 19.3 | 0.00 | 0.00 | 0.00 | 39 | 1008.4 |
| 20260509161122 | 23 | 347 | 3.2 | 19.3 | 0.00 | 0.00 | 0.00 | 38 | 1008.4 |
| 20260509160621 | 23 | 9 | 6.4 | 17.7 | 0.00 | 0.00 | 0.00 | 37 | 1008.5 |
| 20260509155622 | 22 | 336 | 9.7 | 19.3 | 0.00 | 0.00 | 0.00 | 37 | 1008.6 |
| 20260509155122 | 22 | 286 | 6.4 | 14.5 | 0.00 | 0.00 | 0.00 | 40 | 1008.6 |
| 20260509154622 | 22 | 309 | 3.2 | 22.5 | 0.00 | 0.00 | 0.00 | 40 | 1008.8 |
| 20260509154120 | 22 | 24 | 11.3 | 22.5 | 0.00 | 0.00 | 0.00 | 38 | 1009.0 |
| 20260509153619 | 22 | 279 | 6.4 | 22.5 | 0.00 | 0.00 | 0.00 | 36 | 1009.0 |
| 20260509153119 | 22 | 334 | 8.0 | 22.5 | 0.00 | 0.00 | 0.00 | 39 | 1009.2 |
| 20260509152618 | 21 | 301 | 6.4 | 20.9 | 0.00 | 0.00 | 0.00 | 39 | 1009.2 |
| 20260509152118 | 21 | 317 | 8.0 | 19.3 | 0.00 | 0.00 | 0.00 | 42 | 1009.0 |
| 20260509151618 | 21 | 321 | 6.4 | 17.7 | 0.00 | 0.00 | 0.00 | 42 | 1008.8 |
| 20260509150117 | 20 | 26 | 6.4 | 22.5 | 0.00 | 0.00 | 0.00 | 44 | 1008.8 |
| 20260509145616 | 20 | 342 | 6.4 | 22.5 | 0.00 | 0.00 | 0.00 | 46 | 1008.9 |
| 20260509145118 | 20 | 346 | 8.0 | 27.4 | 0.00 | 0.00 | 0.00 | 48 | 1008.9 |
| 20260509144616 | 19 | 347 | 14.5 | 27.4 | 0.00 | 0.00 | 0.00 | 46 | 1008.4 |
| 20260509144116 | 19 | 346 | 9.7 | 20.9 | 0.00 | 0.00 | 0.00 | 53 | 1008.7 |
| 20260509143615 | 18 | 9 | 1.6 | 12.9 | 0.00 | 0.00 | 0.00 | 45 | 1007.8 |
| 20260509143115 | 18 | 243 | 6.4 | 12.9 | 0.00 | 0.00 | 0.00 | 47 | 1007.6 |
| 20260509142613 | 17 | 219 | 6.4 | 9.7 | 0.00 | 0.00 | 0.00 | 48 | 1007.6 |
| 20260509142113 | 17 | 221 | 3.2 | 6.4 | 0.00 | 0.00 | 0.00 | 52 | 1007.6 |
| 20260509141612 | 17 | 252 | 3.2 | 6.4 | 0.00 | 0.00 | 0.00 | 57 | 1007.6 |
| 20260509140612 | 16 | 245 | 4.8 | 8.0 | 0.00 | 0.00 | 0.00 | 59 | 1007.6 |
| 20260509140111 | 15 | 284 | 3.2 | 6.4 | 0.00 | 0.00 | 0.00 | 66 | 1007.7 |
| 20260509135614 | 14 | 196 | 4.8 | 6.4 | 0.00 | 0.00 | 0.00 | 71 | 1007.7 |
| 20260509134610 | 12 | 250 | 1.6 | 3.2 | 0.00 | 0.00 | 0.00 | 82 | 1007.6 |
| 20260509134110 | 11 | 178 | 1.6 | 3.2 | 0.00 | 0.00 | 0.00 | 86 | 1007.6 |
| 20260509133609 | 10 | 137 | 1.6 | 3.2 | 0.00 | 0.00 | 0.00 | 88 | 1007.6 |
| 20260509132604 | 9 | 221 | 1.6 | 3.2 | 0.00 | 0.00 | 0.00 | 89 | 1007.7 |
| 20260509132104 | 8 | 126 | 1.6 | 4.8 | 0.00 | 0.00 | 0.00 | 90 | 1007.6 |
| 20260509131603 | 8 | 124 | 3.2 | 4.8 | 0.00 | 0.00 | 0.00 | 90 | 1007.5 |
| 20260509131103 | 8 | 137 | 1.6 | 3.2 | 0.00 | 0.00 | 0.00 | 90 | 1007.6 |
| 20260509130602 | 7 | 212 | 1.6 | 3.2 | 0.00 | 0.00 | 0.00 | 90 | 1007.6 |
| 20260509125601 | 7 | 190 | 0.0 | 3.2 | 0.00 | 0.00 | 0.00 | 90 | 1007.4 |
| 20260509125101 | 6 | 137 | 1.6 | 3.2 | 0.00 | 0.00 | 0.00 | 90 | 1007.5 |
| 20260509124600 | 6 | 265 | 0.0 | 3.2 | 0.00 | 0.00 | 0.00 | 90 | 1007.5 |
| 20260509123600 | 5 | 309 | 0.0 | 1.6 | 0.00 | 0.00 | 0.00 | 90 | 1007.5 |
| 20260509123100 | 5 | 9 | 0.0 | 1.6 | 0.00 | 0.00 | 0.00 | 89 | 1007.7 |
| 20260509122554 | 5 | 178 | 1.6 | 3.2 | 0.00 | 0.00 | 0.00 | 90 | 1007.6 |
| 20260509122054 | 5 | 319 | 0.0 | 3.2 | 0.00 | 0.00 | 0.00 | 90 | 1007.5 |
| 20260509121549 | 5 | 144 | 1.6 | 3.2 | 0.00 | 0.00 | 0.00 | 89 | 1007.4 |
| 20260509121049 | 5 | 137 | 1.6 | 3.2 | 0.00 | 0.00 | 0.00 | 89 | 1007.5 |
| 20260509120048 | 4 | 178 | 0.0 | 1.6 | 0.00 | 0.00 | 0.00 | 89 | 1007.5 |
| 20260509115547 | 4 | 205 | 0.0 | 1.6 | 0.00 | 0.00 | 0.00 | 89 | 1007.4 |
| 20260509115042 | 4 | 334 | 0.0 | 1.6 | 0.00 | 0.00 | 0.00 | 89 | 1007.4 |
| 20260509114041 | 4 | 9 | 0.0 | 3.2 | 0.00 | 0.00 | 0.00 | 89 | 1007.2 |
| 20260509113541 | 4 | 9 | 0.0 | 1.6 | 0.00 | 0.00 | 0.00 | 88 | 1007.2 |
| 20260509113041 | 4 | 178 | 0.0 | 1.6 | 0.00 | 0.00 | 0.00 | 88 | 1007.2 |
| 20260509112541 | 4 | 119 | 0.0 | 1.6 | 0.00 | 0.00 | 0.00 | 88 | 1007.2 |
| 20260509111539 | 4 | 137 | 0.0 | 1.6 | 0.00 | 0.00 | 0.00 | 88 | 1007.1 |
| 20260509111038 | 4 | 265 | 0.0 | 1.6 | 0.00 | 0.00 | 0.00 | 88 | 1007.1 |
| 20260509110033 | 4 | 178 | 0.0 | 1.6 | 0.00 | 0.00 | 0.00 | 88 | 1006.9 |
| 20260509105532 | 4 | 34 | 0.0 | 1.6 | 0.00 | 0.00 | 0.00 | 87 | 1006.9 |
| 20260509105032 | 4 | 193 | 0.0 | 1.6 | 0.00 | 0.00 | 0.00 | 87 | 1007.1 |
| 20260509104531 | 4 | 119 | 0.0 | 1.6 | 0.00 | 0.00 | 0.00 | 87 | 1007.1 |
| 20260509103526 | 5 | 265 | 0.0 | 1.6 | 0.00 | 0.00 | 0.00 | 87 | 1007.2 |
| 20260509103021 | 5 | 309 | 0.0 | 1.6 | 0.00 | 0.00 | 0.00 | 87 | 1007.2 |
| 20260509102515 | 5 | 119 | 0.0 | 3.2 | 0.00 | 0.00 | 0.00 | 87 | 1007.1 |
| 20260509102014 | 5 | 119 | 1.6 | 3.2 | 0.00 | 0.00 | 0.00 | 86 | 1007.1 |
| 20260509101514 | 5 | 178 | 0.0 | 1.6 | 0.00 | 0.00 | 0.00 | 86 | 1007.1 |
| 20260509100515 | 5 | 309 | 0.0 | 1.6 | 0.00 | 0.00 | 0.00 | 85 | 1007.1 |
| 20260509100013 | 5 | 9 | 0.0 | 1.6 | 0.00 | 0.00 | 0.00 | 85 | 1007.2 |
| 20260509095513 | 5 | 265 | 0.0 | 3.2 | 0.00 | 0.00 | 0.00 | 85 | 1007.1 |
| 20260509094513 | 5 | 131 | 1.6 | 3.2 | 0.00 | 0.00 | 0.00 | 84 | 1007.3 |
| 20260509094012 | 5 | 108 | 0.0 | 1.6 | 0.00 | 0.00 | 0.00 | 84 | 1007.2 |
| 20260509093511 | 5 | 325 | 0.0 | 1.6 | 0.00 | 0.00 | 0.00 | 84 | 1007.1 |
| 20260509092512 | 5 | 196 | 1.6 | 3.2 | 0.00 | 0.00 | 0.00 | 83 | 1007.1 |
| 20260509092010 | 5 | 232 | 0.0 | 1.6 | 0.00 | 0.00 | 0.00 | 83 | 1007.1 |
| 20260509091510 | 6 | 93 | 0.0 | 1.6 | 0.00 | 0.00 | 0.00 | 83 | 1007.1 |
| 20260509091010 | 5 | 126 | 0.0 | 1.6 | 0.00 | 0.00 | 0.00 | 83 | 1007.2 |
| 20260509090500 | 5 | 309 | 0.0 | 1.6 | 0.00 | 0.00 | 0.00 | 82 | 1007.2 |
| 20260509085959 | 5 | 309 | 0.0 | 1.6 | 0.00 | 0.00 | 0.00 | 81 | 1007.1 |
| 20260509084948 | 6 | 334 | 0.0 | 1.6 | 0.00 | 0.00 | 0.00 | 80 | 1007.1 |
| 20260509084442 | 6 | 265 | 0.0 | 1.6 | 0.00 | 0.00 | 0.00 | 80 | 1006.9 |
| 20260509083942 | 6 | 178 | 0.0 | 1.6 | 0.00 | 0.00 | 0.00 | 80 | 1006.9 |
| 20260509083439 | 6 | 111 | 0.0 | 1.6 | 0.00 | 0.00 | 0.00 | 80 | 1007.1 |
| 20260509082932 | 6 | 93 | 0.0 | 3.2 | 0.00 | 0.00 | 0.00 | 80 | 1007.1 |
| 20260509081931 | 6 | 153 | 0.0 | 1.6 | 0.00 | 0.00 | 0.00 | 78 | 1007.1 |
| 20260509081431 | 6 | 126 | 0.0 | 1.6 | 0.00 | 0.00 | 0.00 | 77 | 1007.1 |
| 20260509080931 | 7 | 9 | 0.0 | 1.6 | 0.00 | 0.00 | 0.00 | 77 | 1007.1 |
| 20260509080430 | 7 | 291 | 0.0 | 1.6 | 0.00 | 0.00 | 0.00 | 77 | 1007.1 |
| 20260509075920 | 7 | 309 | 0.0 | 1.6 | 0.00 | 0.00 | 0.00 | 76 | 1007.1 |
| 20260509075420 | 7 | 9 | 0.0 | 1.6 | 0.00 | 0.00 | 0.00 | 77 | 1006.9 |
| 20260509074914 | 7 | 41 | 0.0 | 1.6 | 0.00 | 0.00 | 0.00 | 76 | 1007.1 |
| 20260509074415 | 7 | 291 | 0.0 | 3.2 | 0.00 | 0.00 | 0.00 | 75 | 1007.1 |
| 20260509073914 | 7 | 111 | 0.0 | 3.2 | 0.00 | 0.00 | 0.00 | 74 | 1007.1 |
| 20260509073413 | 8 | 119 | 0.0 | 3.2 | 0.00 | 0.00 | 0.00 | 73 | 1007.1 |
| 20260509072915 | 8 | 137 | 0.0 | 3.2 | 0.00 | 0.00 | 0.00 | 72 | 1007.2 |
| 20260509072413 | 8 | 178 | 0.0 | 1.6 | 0.00 | 0.00 | 0.00 | 71 | 1007.2 |
| 20260509071912 | 8 | 137 | 0.0 | 1.6 | 0.00 | 0.00 | 0.00 | 71 | 1007.1 |
| 20260509071412 | 8 | 51 | 0.0 | 1.6 | 0.00 | 0.00 | 0.00 | 70 | 1007.1 |
| 20260509070913 | 9 | 34 | 0.0 | 1.6 | 0.00 | 0.00 | 0.00 | 69 | 1007.1 |
| 20260509070413 | 9 | 309 | 0.0 | 1.6 | 0.00 | 0.00 | 0.00 | 67 | 1007.2 |
| 20260509065913 | 9 | 325 | 0.0 | 1.6 | 0.00 | 0.00 | 0.00 | 67 | 1007.2 |
| 20260509064908 | 10 | 76 | 3.2 | 4.8 | 0.00 | 0.00 | 0.00 | 66 | 1007.3 |
| 20260509064405 | 10 | 93 | 0.0 | 4.8 | 0.00 | 0.00 | 0.00 | 63 | 1007.4 |
| 20260509063905 | 10 | 129 | 3.2 | 4.8 | 0.00 | 0.00 | 0.00 | 62 | 1007.3 |
| 20260509063406 | 11 | 9 | 1.6 | 4.8 | 0.00 | 0.00 | 0.00 | 61 | 1007.4 |
| 20260509062905 | 11 | 9 | 3.2 | 4.8 | 0.00 | 0.00 | 0.00 | 60 | 1007.3 |
| 20260509062405 | 11 | 22 | 1.6 | 4.8 | 0.00 | 0.00 | 0.00 | 60 | 1007.4 |
| 20260509061904 | 11 | 34 | 1.6 | 4.8 | 0.00 | 0.00 | 0.00 | 61 | 1007.4 |
| 20260509061404 | 11 | 334 | 1.6 | 4.8 | 0.00 | 0.00 | 0.00 | 59 | 1007.4 |
| 20260509060904 | 11 | 334 | 3.2 | 4.8 | 0.00 | 0.00 | 0.00 | 61 | 1007.3 |
| 20260509060405 | 11 | 265 | 0.0 | 4.8 | 0.00 | 0.00 | 0.00 | 61 | 1007.3 |
| 20260509055903 | 11 | 341 | 3.2 | 4.8 | 0.00 | 0.00 | 0.00 | 61 | 1007.4 |
| 20260509055405 | 10 | 26 | 1.6 | 4.8 | 0.00 | 0.00 | 0.00 | 62 | 1007.4 |
| 20260509054903 | 10 | 344 | 1.6 | 4.8 | 0.00 | 0.00 | 0.00 | 64 | 1007.4 |
| 20260509054402 | 10 | 9 | 3.2 | 6.4 | 0.00 | 0.00 | 0.00 | 65 | 1007.4 |
| 20260509053902 | 10 | 298 | 1.6 | 6.4 | 0.00 | 0.00 | 0.00 | 66 | 1007.3 |
| 20260509053402 | 10 | 337 | 3.2 | 6.4 | 0.00 | 0.00 | 0.00 | 67 | 1007.2 |
| 20260509052901 | 10 | 341 | 3.2 | 6.4 | 0.00 | 0.00 | 0.00 | 68 | 1007.2 |
| 20260509052401 | 10 | 20 | 3.2 | 6.4 | 0.00 | 0.00 | 0.00 | 68 | 1007.3 |
| 20260509051901 | 10 | 341 | 1.6 | 6.4 | 0.00 | 0.00 | 0.00 | 68 | 1007.2 |
| 20260509051400 | 10 | 325 | 1.6 | 4.8 | 0.00 | 0.00 | 0.00 | 67 | 1007.2 |
| 20260509050902 | 10 | 309 | 3.2 | 4.8 | 0.00 | 0.00 | 0.00 | 67 | 1007.1 |
| 20260509050359 | 10 | 16 | 0.0 | 3.2 | 0.00 | 0.00 | 0.00 | 66 | 1007.2 |
| 20260509045859 | 10 | 9 | 1.6 | 3.2 | 0.00 | 0.00 | 0.00 | 66 | 1007.1 |
| 20260509044858 | 11 | 26 | 0.0 | 1.6 | 0.00 | 0.00 | 0.00 | 66 | 1007.1 |
| 20260509044358 | 11 | 205 | 0.0 | 1.6 | 0.00 | 0.00 | 0.00 | 66 | 1006.9 |
| 20260509043357 | 11 | 265 | 1.6 | 4.8 | 0.00 | 0.00 | 0.00 | 65 | 1006.9 |
| 20260509042859 | 11 | 309 | 0.0 | 1.6 | 0.00 | 0.00 | 0.00 | 65 | 1006.9 |
| 20260509042357 | 11 | 309 | 0.0 | 1.6 | 0.00 | 0.00 | 0.00 | 64 | 1006.8 |
| 20260509041856 | 12 | 309 | 0.0 | 1.6 | 0.00 | 0.00 | 0.00 | 63 | 1006.8 |
| 20260509041356 | 12 | 205 | 0.0 | 1.6 | 0.00 | 0.00 | 0.00 | 62 | 1006.8 |
| 20260509040855 | 12 | 265 | 0.0 | 1.6 | 0.00 | 0.00 | 0.00 | 60 | 1006.8 |
| 20260509040356 | 12 | 325 | 0.0 | 1.6 | 0.00 | 0.00 | 0.00 | 59 | 1006.8 |
| 20260509035857 | 12 | 325 | 0.0 | 1.6 | 0.00 | 0.00 | 0.00 | 58 | 1006.7 |
| 20260509035356 | 13 | 111 | 0.0 | 1.6 | 0.00 | 0.00 | 0.00 | 57 | 1006.7 |
| 20260509034855 | 13 | 309 | 0.0 | 1.6 | 0.00 | 0.00 | 0.00 | 57 | 1006.8 |
| 20260509034354 | 13 | 26 | 0.0 | 1.6 | 0.00 | 0.00 | 0.00 | 54 | 1006.8 |
| 20260509033855 | 13 | 309 | 0.0 | 1.6 | 0.00 | 0.00 | 0.00 | 54 | 1006.8 |
| 20260509033354 | 13 | 298 | 0.0 | 1.6 | 0.00 | 0.00 | 0.00 | 51 | 1006.7 |
| 20260509032348 | 14 | 178 | 1.6 | 3.2 | 0.00 | 0.00 | 0.00 | 50 | 1006.5 |
| 20260509031849 | 15 | 292 | 1.6 | 1.6 | 0.00 | 0.00 | 0.00 | 51 | 1006.5 |
| 20260509031348 | 15 | 93 | 0.0 | 1.6 | 0.00 | 0.00 | 0.00 | 48 | 1006.4 |
| 20260509030849 | 15 | 309 | 0.0 | 3.2 | 0.00 | 0.00 | 0.00 | 47 | 1006.4 |
| 20260509030341 | 15 | 309 | 1.6 | 3.2 | 0.00 | 0.00 | 0.00 | 46 | 1006.3 |
| 20260509025837 | 16 | 9 | 1.6 | 3.2 | 0.00 | 0.00 | 0.00 | 43 | 1006.2 |
| 20260509025336 | 16 | 238 | 0.0 | 3.2 | 0.00 | 0.00 | 0.00 | 42 | 1006.2 |
| 20260509024836 | 16 | 205 | 1.6 | 6.4 | 0.00 | 0.00 | 0.00 | 43 | 1006.0 |
| 20260509024336 | 16 | 153 | 1.6 | 6.4 | 0.00 | 0.00 | 0.00 | 39 | 1006.0 |
| 20260509023835 | 16 | 347 | 3.2 | 4.8 | 0.00 | 0.00 | 0.00 | 38 | 1006.0 |
| 20260509023335 | 16 | 9 | 0.0 | 1.6 | 0.00 | 0.00 | 0.00 | 42 | 1005.9 |
| 20260509022834 | 16 | 51 | 0.0 | 1.6 | 0.00 | 0.00 | 0.00 | 42 | 1005.7 |
| 20260509022333 | 16 | 126 | 0.0 | 1.6 | 0.00 | 0.00 | 0.00 | 41 | 1005.6 |
| 20260509021833 | 17 | 93 | 0.0 | 1.6 | 0.00 | 0.00 | 0.00 | 40 | 1005.6 |
| 20260509021328 | 17 | 119 | 0.0 | 3.2 | 0.00 | 0.00 | 0.00 | 38 | 1005.5 |
| 20260509020829 | 18 | 9 | 0.0 | 3.2 | 0.00 | 0.00 | 0.00 | 38 | 1005.4 |
| 20260509020328 | 18 | 205 | 0.0 | 3.2 | 0.00 | 0.00 | 0.00 | 35 | 1005.4 |
| 20260509015827 | 18 | 108 | 0.0 | 3.2 | 0.00 | 0.00 | 0.00 | 34 | 1005.3 |
| 20260509015323 | 19 | 126 | 0.0 | 1.6 | 0.00 | 0.00 | 0.00 | 33 | 1005.3 |
| 20260509014824 | 19 | 51 | 0.0 | 1.6 | 0.00 | 0.00 | 0.00 | 33 | 1005.3 |
| 20260509014322 | 20 | 51 | 0.0 | 1.6 | 0.00 | 0.00 | 0.00 | 32 | 1005.2 |
| 20260509013822 | 20 | 137 | 0.0 | 3.2 | 0.00 | 0.00 | 0.00 | 32 | 1005.2 |
| 20260509013321 | 20 | 51 | 1.6 | 3.2 | 0.00 | 0.00 | 0.00 | 31 | 1005.2 |
| 20260509012321 | 20 | 336 | 1.6 | 6.4 | 0.00 | 0.00 | 0.00 | 31 | 1005.1 |
| 20260509011315 | 21 | 9 | 3.2 | 12.9 | 0.00 | 0.00 | 0.00 | 30 | 1005.0 |
| 20260509010815 | 21 | 325 | 4.8 | 12.9 | 0.00 | 0.00 | 0.00 | 29 | 1005.0 |
| 20260509005815 | 22 | 325 | 3.2 | 12.9 | 0.00 | 0.00 | 0.00 | 31 | 1004.9 |
| 20260509005315 | 22 | 334 | 3.2 | 16.1 | 0.00 | 0.00 | 0.00 | 29 | 1004.9 |
| 20260509004314 | 22 | 302 | 3.2 | 17.7 | 0.00 | 0.00 | 0.00 | 30 | 1004.8 |
| 20260509003815 | 23 | 301 | 4.8 | 17.7 | 0.00 | 0.00 | 0.00 | 29 | 1004.8 |
| 20260509003314 | 23 | 15 | 4.8 | 14.5 | 0.00 | 0.00 | 0.00 | 29 | 1004.8 |
| 20260509002313 | 23 | 277 | 6.4 | 17.7 | 0.00 | 0.00 | 0.00 | 30 | 1004.7 |
| 20260509001813 | 23 | 272 | 4.8 | 17.7 | 0.00 | 0.00 | 0.00 | 30 | 1004.7 |
| 20260509000812 | 23 | 13 | 4.8 | 11.3 | 0.00 | 0.00 | 0.00 | 34 | 1004.7 |
| 20260509000311 | 23 | 289 | 4.8 | 16.1 | 0.00 | 0.00 | 0.00 | 34 | 1004.6 |
| 20260508235812 | 23 | 282 | 4.8 | 16.1 | 0.00 | 0.00 | 0.00 | 34 | 1004.8 |
| 20260508235313 | 23 | 286 | 3.2 | 11.3 | 0.00 | 0.00 | 0.00 | 38 | 1004.8 |
| 20260508234811 | 23 | 277 | 6.4 | 12.9 | 0.00 | 0.00 | 0.00 | 35 | 1004.7 |
| 20260508234311 | 22 | 304 | 4.8 | 16.1 | 0.00 | 0.00 | 0.00 | 36 | 1004.8 |
| 20260508233311 | 22 | 243 | 6.4 | 12.9 | 0.00 | 0.00 | 0.00 | 35 | 1004.8 |
| 20260508232810 | 22 | 271 | 4.8 | 9.7 | 0.00 | 0.00 | 0.00 | 38 | 1004.8 |
| 20260508232310 | 22 | 255 | 3.2 | 8.0 | 0.00 | 0.00 | 0.00 | 36 | 1004.8 |
| 20260508231809 | 22 | 254 | 3.2 | 11.3 | 0.00 | 0.00 | 0.00 | 35 | 1004.8 |
| 20260508231309 | 22 | 279 | 3.2 | 11.3 | 0.00 | 0.00 | 0.00 | 36 | 1004.8 |
| 20260508230809 | 22 | 236 | 3.2 | 6.4 | 0.00 | 0.00 | 0.00 | 33 | 1004.9 |
| 20260508230309 | 22 | 178 | 1.6 | 6.4 | 0.00 | 0.00 | 0.00 | 34 | 1004.9 |
| 20260508225808 | 23 | 275 | 3.2 | 9.7 | 0.00 | 0.00 | 0.00 | 34 | 1004.9 |
| 20260508224808 | 23 | 286 | 3.2 | 12.9 | 0.00 | 0.00 | 0.00 | 34 | 1004.9 |
| 20260508224307 | 23 | 254 | 6.4 | 20.9 | 0.00 | 0.00 | 0.00 | 32 | 1004.9 |
| 20260508222306 | 24 | 344 | 1.6 | 8.0 | 0.00 | 0.00 | 0.00 | 35 | 1005.0 |
| 20260508221305 | 24 | 334 | 3.2 | 12.9 | 0.00 | 0.00 | 0.00 | 38 | 1005.2 |
| 20260508220805 | 24 | 225 | 4.8 | 14.5 | 0.00 | 0.00 | 0.00 | 30 | 1005.2 |
| 20260508220305 | 24 | 226 | 6.4 | 17.7 | 0.00 | 0.00 | 0.00 | 28 | 1005.2 |
| 20260508215306 | 25 | 242 | 6.4 | 24.1 | 0.00 | 0.00 | 0.00 | 29 | 1005.1 |
| 20260508214804 | 25 | 223 | 9.7 | 19.3 | 0.00 | 0.00 | 0.00 | 28 | 1005.2 |
| 20260508213805 | 24 | 225 | 4.8 | 17.7 | 0.00 | 0.00 | 0.00 | 27 | 1005.3 |
| 20260508213303 | 24 | 259 | 8.0 | 17.7 | 0.00 | 0.00 | 0.00 | 32 | 1005.4 |
| 20260508212803 | 24 | 234 | 8.0 | 19.3 | 0.00 | 0.00 | 0.00 | 29 | 1005.4 |
| 20260508212306 | 25 | 217 | 9.7 | 19.3 | 0.00 | 0.00 | 0.00 | 28 | 1005.4 |
| 20260508211802 | 25 | 246 | 8.0 | 19.3 | 0.00 | 0.00 | 0.00 | 31 | 1005.5 |
| 20260508211302 | 25 | 298 | 12.9 | 19.3 | 0.00 | 0.00 | 0.00 | 28 | 1005.5 |
| 20260508210801 | 25 | 249 | 9.7 | 22.5 | 0.00 | 0.00 | 0.00 | 31 | 1005.6 |
| 20260508210301 | 26 | 232 | 8.0 | 22.5 | 0.00 | 0.00 | 0.00 | 28 | 1005.8 |
| 20260508205801 | 25 | 234 | 11.3 | 19.3 | 0.00 | 0.00 | 0.00 | 29 | 1005.8 |
| 20260508205301 | 25 | 221 | 12.9 | 19.3 | 0.00 | 0.00 | 0.00 | 31 | 1005.8 |
| 20260508204800 | 24 | 244 | 6.4 | 19.3 | 0.00 | 0.00 | 0.00 | 30 | 1005.9 |
| 20260508204300 | 24 | 240 | 12.9 | 19.3 | 0.00 | 0.00 | 0.00 | 28 | 1006.0 |
| 20260508203802 | 25 | 275 | 6.4 | 20.9 | 0.00 | 0.00 | 0.00 | 29 | 1006.1 |
| 20260508203259 | 25 | 314 | 9.7 | 20.9 | 0.00 | 0.00 | 0.00 | 32 | 1006.2 |
| 20260508201758 | 24 | 223 | 11.3 | 24.1 | 0.00 | 0.00 | 0.00 | 31 | 1006.2 |
| 20260508201256 | 24 | 234 | 4.8 | 24.1 | 0.00 | 0.00 | 0.00 | 37 | 1006.4 |
| 20260508200756 | 23 | 26 | 6.4 | 14.5 | 0.00 | 0.00 | 0.00 | 31 | 1006.4 |
| 20260508200257 | 23 | 183 | 3.2 | 14.5 | 0.00 | 0.00 | 0.00 | 31 | 1006.5 |
| 20260508195756 | 24 | 207 | 8.0 | 19.3 | 0.00 | 0.00 | 0.00 | 30 | 1006.6 |
| 20260508194755 | 24 | 277 | 6.4 | 22.5 | 0.00 | 0.00 | 0.00 | 28 | 1006.7 |
| 20260508194254 | 24 | 248 | 6.4 | 20.9 | 0.00 | 0.00 | 0.00 | 34 | 1006.8 |
| 20260508193252 | 24 | 178 | 6.4 | 14.5 | 0.00 | 0.00 | 0.00 | 27 | 1006.9 |
| 20260508192252 | 24 | 113 | 4.8 | 24.1 | 0.00 | 0.00 | 0.00 | 25 | 1006.9 |
| 20260508191751 | 25 | 171 | 9.7 | 17.7 | 0.00 | 0.00 | 0.00 | 29 | 1006.8 |